Location: Banff
(51.1667°N, 115.5667°W)
Time: 11:26:21
(UTC+00:00)

Vanguard 1 Rocket - Pass Details

Date: 26 November 2020
Orbit: 655 x 4222 km, 34.3° (Epoch: 23 January)

Event Time Altitude Azimuth Distance (km) Brightness Sun altitude
Rises 10:49:13 0° 241° (WSW) 8,459 - -41.1°
Reaches altitude 10° 10:55:47 10° 236° (SW) 7,316 - -40.1°
Exits shadow 11:10:50 36° 207° (SSW) 4,703 10.6 -37.8°
Maximum altitude 11:16:55 43° 176° (S) 3,976 10.4 -36.9°
Drops below altitude 10° 11:29:55 10° 111° (ESE) 4,646 11.6 -34.9°
Sets 11:33:00 0° 104° (ESE) 5,257 12.2 -34.4°
